contact:dominique.lefevre@mio.osupytheas.fr, maurice.libes@osupytheas.fr, didier.mallarino@osupytheas.fr
Project:EMSO http://www.emso-fr.org/EMSO-France
Depth: 2436.0 m
Title:EMSO Ligure Ouest : Data MII capteur OXYGEN
DateTime,Latitude,Longitude,Optode-Type,Optode_Serial,Oxygen,Saturation_Oxygen,Temperature
DateTime,Latitude,Longitude,Optode-Type,Optode_Serial,µmol.l-1,%,degC
2017-11-04T00:01:26,42.805,6.029,4330,1995,197.733,60.467,13.286
2017-11-04T00:04:26,42.805,6.029,4330,1995,197.554,60.413,13.287
2017-11-04T00:07:26,42.805,6.029,4330,1995,197.878,60.512,13.287
2017-11-04T00:10:26,42.805,6.029,4330,1995,197.880,60.512,13.286
2017-11-04T00:13:26,42.805,6.029,4330,1995,197.783,60.484,13.287
2017-11-04T00:16:26,42.805,6.029,4330,1995,197.776,60.480,13.286
2017-11-04T00:19:26,42.805,6.029,4330,1995,197.767,60.478,13.287
2017-11-04T00:22:26,42.805,6.029,4330,1995,197.622,60.434,13.287
2017-11-04T00:25:26,42.805,6.029,4330,1995,197.672,60.449,13.287
2017-11-04T00:28:26,42.805,6.029,4330,1995,197.794,60.486,13.287
2017-11-04T00:31:26,42.805,6.029,4330,1995,197.687,60.454,13.287
2017-11-04T00:34:26,42.805,6.029,4330,1995,197.749,60.472,13.286
2017-11-04T00:37:26,42.805,6.029,4330,1995,197.782,60.483,13.287
2017-11-04T00:40:26,42.805,6.029,4330,1995,197.832,60.498,13.287
2017-11-04T00:43:26,42.805,6.029,4330,1995,197.735,60.468,13.287
2017-11-04T00:46:26,42.805,6.029,4330,1995,197.798,60.487,13.286
2017-11-04T00:49:26,42.805,6.029,4330,1995,197.761,60.476,13.286
2017-11-04T00:52:26,42.805,6.029,4330,1995,197.653,60.443,13.287
2017-11-04T00:55:26,42.805,6.029,4330,1995,197.700,60.457,13.286
2017-11-04T00:58:26,42.805,6.029,4330,1995,197.673,60.449,13.287
2017-11-04T01:01:26,42.805,6.029,4330,1995,197.788,60.485,13.287
2017-11-04T01:04:26,42.805,6.029,4330,1995,197.754,60.473,13.286
2017-11-04T01:07:26,42.805,6.029,4330,1995,197.729,60.466,13.286
2017-11-04T01:10:26,42.805,6.029,4330,1995,197.673,60.449,13.286
2017-11-04T01:13:26,42.805,6.029,4330,1995,197.579,60.420,13.287
2017-11-04T01:16:26,42.805,6.029,4330,1995,197.591,60.425,13.287
2017-11-04T01:19:26,42.805,6.029,4330,1995,197.620,60.433,13.286
2017-11-04T01:22:26,42.805,6.029,4330,1995,197.638,60.438,13.286
2017-11-04T01:25:26,42.805,6.029,4330,1995,197.570,60.418,13.287
2017-11-04T01:28:26,42.805,6.029,4330,1995,197.679,60.451,13.287
2017-11-04T01:31:26,42.805,6.029,4330,1995,197.728,60.466,13.286
2017-11-04T01:34:26,42.805,6.029,4330,1995,197.651,60.442,13.286
2017-11-04T01:37:26,42.805,6.029,4330,1995,197.656,60.443,13.286
2017-11-04T01:40:26,42.805,6.029,4330,1995,197.632,60.436,13.286
2017-11-04T01:43:26,42.805,6.029,4330,1995,197.695,60.456,13.286
2017-11-04T01:46:26,42.805,6.029,4330,1995,197.705,60.458,13.286
2017-11-04T01:49:26,42.805,6.029,4330,1995,197.634,60.437,13.286
2017-11-04T01:52:26,42.805,6.029,4330,1995,197.610,60.430,13.286
2017-11-04T01:55:26,42.805,6.029,4330,1995,197.594,60.425,13.286
2017-11-04T01:58:26,42.805,6.029,4330,1995,197.527,60.404,13.286
2017-11-04T02:01:26,42.805,6.029,4330,1995,197.629,60.436,13.286
2017-11-04T02:04:26,42.805,6.029,4330,1995,197.746,60.472,13.287
2017-11-04T02:07:26,42.805,6.029,4330,1995,197.734,60.468,13.286
2017-11-04T02:10:26,42.805,6.029,4330,1995,197.753,60.473,13.286
2017-11-04T02:13:26,42.805,6.029,4330,1995,197.724,60.464,13.286
2017-11-04T02:16:26,42.805,6.029,4330,1995,197.610,60.430,13.286
2017-11-04T02:19:26,42.805,6.029,4330,1995,197.587,60.422,13.286
2017-11-04T02:22:26,42.805,6.029,4330,1995,197.669,60.447,13.286
2017-11-04T02:25:26,42.805,6.029,4330,1995,197.614,60.431,13.286
2017-11-04T02:28:26,42.805,6.029,4330,1995,197.706,60.459,13.286
2017-11-04T02:31:26,42.805,6.029,4330,1995,197.739,60.469,13.286
2017-11-04T02:34:26,42.805,6.029,4330,1995,197.698,60.456,13.286
2017-11-04T02:37:26,42.805,6.029,4330,1995,197.703,60.458,13.286
2017-11-04T02:40:26,42.805,6.029,4330,1995,197.647,60.441,13.286
2017-11-04T02:43:26,42.805,6.029,4330,1995,197.605,60.428,13.286
2017-11-04T02:46:26,42.805,6.029,4330,1995,197.605,60.428,13.286
2017-11-04T02:49:26,42.805,6.029,4330,1995,197.698,60.456,13.286
2017-11-04T02:52:26,42.805,6.029,4330,1995,197.690,60.454,13.286
2017-11-04T02:55:26,42.805,6.029,4330,1995,197.610,60.430,13.286
2017-11-04T02:58:26,42.805,6.029,4330,1995,197.628,60.435,13.286
2017-11-04T03:01:26,42.805,6.029,4330,1995,197.655,60.443,13.286
2017-11-04T03:04:26,42.805,6.029,4330,1995,197.677,60.450,13.286
2017-11-04T03:07:26,42.805,6.029,4330,1995,197.626,60.435,13.286
2017-11-04T03:10:26,42.805,6.029,4330,1995,197.692,60.454,13.286
2017-11-04T03:13:26,42.805,6.029,4330,1995,197.850,60.503,13.286
2017-11-04T03:16:26,42.805,6.029,4330,1995,197.821,60.494,13.286
2017-11-04T03:19:26,42.805,6.029,4330,1995,197.770,60.478,13.286
2017-11-04T03:22:26,42.805,6.029,4330,1995,197.871,60.509,13.286
2017-11-04T03:25:26,42.805,6.029,4330,1995,197.927,60.526,13.286
2017-11-04T03:28:26,42.805,6.029,4330,1995,197.858,60.505,13.286
2017-11-04T03:31:26,42.805,6.029,4330,1995,197.763,60.476,13.286
2017-11-04T03:34:26,42.805,6.029,4330,1995,197.776,60.480,13.286
2017-11-04T03:37:26,42.805,6.029,4330,1995,197.885,60.513,13.286
2017-11-04T03:40:26,42.805,6.029,4330,1995,197.874,60.510,13.286
2017-11-04T03:43:26,42.805,6.029,4330,1995,197.763,60.476,13.286
2017-11-04T03:46:26,42.805,6.029,4330,1995,197.799,60.487,13.286
2017-11-04T03:49:26,42.805,6.029,4330,1995,197.848,60.502,13.286
2017-11-04T03:52:26,42.805,6.029,4330,1995,197.830,60.497,13.286
2017-11-04T03:55:26,42.805,6.029,4330,1995,197.850,60.503,13.286
2017-11-04T03:58:26,42.805,6.029,4330,1995,197.769,60.478,13.286
2017-11-04T04:01:26,42.805,6.029,4330,1995,197.825,60.495,13.286
2017-11-04T04:04:26,42.805,6.029,4330,1995,197.776,60.480,13.286
2017-11-04T04:07:26,42.805,6.029,4330,1995,197.901,60.518,13.286
2017-11-04T04:10:26,42.805,6.029,4330,1995,197.839,60.500,13.286
2017-11-04T04:13:26,42.805,6.029,4330,1995,197.832,60.497,13.286
2017-11-04T04:16:26,42.805,6.029,4330,1995,197.837,60.499,13.286
2017-11-04T04:19:26,42.805,6.029,4330,1995,197.881,60.512,13.286
2017-11-04T04:22:26,42.805,6.029,4330,1995,197.824,60.495,13.286
2017-11-04T04:25:26,42.805,6.029,4330,1995,197.810,60.490,13.286
2017-11-04T04:28:26,42.805,6.029,4330,1995,197.834,60.498,13.286
2017-11-04T04:31:26,42.805,6.029,4330,1995,197.881,60.512,13.286
2017-11-04T04:34:26,42.805,6.029,4330,1995,197.853,60.504,13.286
2017-11-04T04:37:26,42.805,6.029,4330,1995,197.770,60.478,13.286
2017-11-04T04:40:26,42.805,6.029,4330,1995,197.846,60.502,13.286
2017-11-04T04:43:26,42.805,6.029,4330,1995,197.876,60.510,13.286
2017-11-04T04:46:26,42.805,6.029,4330,1995,197.869,60.509,13.286
2017-11-04T04:49:26,42.805,6.029,4330,1995,197.904,60.519,13.286
2017-11-04T04:52:26,42.805,6.029,4330,1995,197.803,60.488,13.286
2017-11-04T04:55:26,42.805,6.029,4330,1995,197.757,60.474,13.286
2017-11-04T04:58:26,42.805,6.029,4330,1995,197.874,60.510,13.286
2017-11-04T05:01:26,42.805,6.029,4330,1995,197.873,60.510,13.286
2017-11-04T05:04:26,42.805,6.029,4330,1995,197.820,60.494,13.286
2017-11-04T05:07:26,42.805,6.029,4330,1995,197.892,60.515,13.286
2017-11-04T05:10:26,42.805,6.029,4330,1995,197.937,60.529,13.286
2017-11-04T05:13:26,42.805,6.029,4330,1995,197.969,60.539,13.286
2017-11-04T05:16:26,42.805,6.029,4330,1995,198.057,60.566,13.286
2017-11-04T05:19:26,42.805,6.029,4330,1995,198.203,60.610,13.286
2017-11-04T05:22:26,42.805,6.029,4330,1995,198.085,60.574,13.286
2017-11-04T05:25:26,42.805,6.029,4330,1995,198.023,60.555,13.286
2017-11-04T05:28:26,42.805,6.029,4330,1995,197.984,60.543,13.286
2017-11-04T05:31:26,42.805,6.029,4330,1995,198.017,60.554,13.286
2017-11-04T05:34:25,42.805,6.029,4330,1995,198.030,60.558,13.286
2017-11-04T05:37:25,42.805,6.029,4330,1995,198.066,60.568,13.286
2017-11-04T05:40:25,42.805,6.029,4330,1995,198.088,60.575,13.286
2017-11-04T05:43:25,42.805,6.029,4330,1995,197.978,60.541,13.286
2017-11-04T05:46:25,42.805,6.029,4330,1995,198.036,60.559,13.286
2017-11-04T05:49:25,42.805,6.029,4330,1995,198.047,60.563,13.286
2017-11-04T05:52:25,42.805,6.029,4330,1995,198.003,60.549,13.286
2017-11-04T05:55:25,42.805,6.029,4330,1995,197.859,60.505,13.286
2017-11-04T05:58:25,42.805,6.029,4330,1995,197.987,60.544,13.286
2017-11-04T06:01:25,42.805,6.029,4330,1995,198.003,60.549,13.286
2017-11-04T06:04:25,42.805,6.029,4330,1995,198.059,60.566,13.286
2017-11-04T06:07:25,42.805,6.029,4330,1995,198.145,60.593,13.286
2017-11-04T06:10:25,42.805,6.029,4330,1995,198.157,60.596,13.286
2017-11-04T06:13:25,42.805,6.029,4330,1995,198.205,60.611,13.286
2017-11-04T06:16:25,42.805,6.029,4330,1995,198.205,60.611,13.286
2017-11-04T06:19:25,42.805,6.029,4330,1995,198.223,60.616,13.286
2017-11-04T06:22:25,42.805,6.029,4330,1995,198.190,60.607,13.286
2017-11-04T06:25:25,42.805,6.029,4330,1995,198.161,60.597,13.286
2017-11-04T06:28:25,42.805,6.029,4330,1995,198.181,60.604,13.286
2017-11-04T06:31:25,42.805,6.029,4330,1995,198.130,60.588,13.286
2017-11-04T06:34:25,42.805,6.029,4330,1995,198.202,60.610,13.286
2017-11-04T06:37:25,42.805,6.029,4330,1995,198.148,60.594,13.286
2017-11-04T06:40:25,42.805,6.029,4330,1995,198.230,60.619,13.286
2017-11-04T06:43:25,42.805,6.029,4330,1995,198.190,60.606,13.286
2017-11-04T06:46:25,42.805,6.029,4330,1995,198.254,60.626,13.286
2017-11-04T06:49:25,42.805,6.029,4330,1995,198.191,60.607,13.286
2017-11-04T06:52:25,42.805,6.029,4330,1995,198.293,60.638,13.286
2017-11-04T06:55:25,42.805,6.029,4330,1995,198.232,60.620,13.286
2017-11-04T06:58:25,42.805,6.029,4330,1995,198.307,60.643,13.286
2017-11-04T07:01:25,42.805,6.029,4330,1995,198.380,60.665,13.286
2017-11-04T07:04:25,42.805,6.029,4330,1995,198.437,60.682,13.286
2017-11-04T07:07:25,42.805,6.029,4330,1995,198.406,60.672,13.286
2017-11-04T07:10:25,42.805,6.029,4330,1995,198.509,60.704,13.286
2017-11-04T07:13:25,42.805,6.029,4330,1995,198.457,60.688,13.286
2017-11-04T07:16:25,42.805,6.029,4330,1995,198.448,60.685,13.286
2017-11-04T07:19:25,42.805,6.029,4330,1995,198.480,60.695,13.286
2017-11-04T07:22:25,42.805,6.029,4330,1995,198.523,60.708,13.286
2017-11-04T07:25:25,42.805,6.029,4330,1995,198.573,60.724,13.286
2017-11-04T07:28:25,42.805,6.029,4330,1995,198.583,60.727,13.286
2017-11-04T07:31:25,42.805,6.029,4330,1995,198.593,60.730,13.286
2017-11-04T07:34:25,42.805,6.029,4330,1995,198.631,60.741,13.286
2017-11-04T07:37:25,42.805,6.029,4330,1995,198.714,60.767,13.286
2017-11-04T07:40:25,42.805,6.029,4330,1995,198.758,60.781,13.286
2017-11-04T07:43:25,42.805,6.029,4330,1995,198.741,60.775,13.286
2017-11-04T07:46:25,42.805,6.029,4330,1995,198.810,60.796,13.286
2017-11-04T07:49:25,42.805,6.029,4330,1995,198.838,60.804,13.286
2017-11-04T07:52:25,42.805,6.029,4330,1995,198.819,60.799,13.286
2017-11-04T07:55:25,42.805,6.029,4330,1995,198.904,60.825,13.286
2017-11-04T07:58:25,42.805,6.029,4330,1995,198.896,60.822,13.286
2017-11-04T08:01:25,42.805,6.029,4330,1995,198.963,60.843,13.286
2017-11-04T08:04:25,42.805,6.029,4330,1995,198.932,60.834,13.286
2017-11-04T08:07:25,42.805,6.029,4330,1995,198.888,60.820,13.286
2017-11-04T08:10:25,42.805,6.029,4330,1995,198.898,60.823,13.286
2017-11-04T08:13:25,42.805,6.029,4330,1995,198.946,60.838,13.286
2017-11-04T08:16:25,42.805,6.029,4330,1995,198.928,60.832,13.286
2017-11-04T08:19:25,42.805,6.029,4330,1995,198.979,60.848,13.286
2017-11-04T08:22:25,42.805,6.029,4330,1995,199.034,60.865,13.286
2017-11-04T08:25:25,42.805,6.029,4330,1995,198.977,60.847,13.286
2017-11-04T08:28:25,42.805,6.029,4330,1995,198.949,60.839,13.286
2017-11-04T08:31:25,42.805,6.029,4330,1995,198.966,60.844,13.286
2017-11-04T08:34:25,42.805,6.029,4330,1995,198.986,60.850,13.286
2017-11-04T08:37:25,42.805,6.029,4330,1995,198.983,60.849,13.286
2017-11-04T08:40:25,42.805,6.029,4330,1995,198.926,60.832,13.286
2017-11-04T08:43:25,42.805,6.029,4330,1995,198.993,60.852,13.286
2017-11-04T08:46:25,42.805,6.029,4330,1995,198.873,60.815,13.286
2017-11-04T08:49:25,42.805,6.029,4330,1995,198.970,60.845,13.286
2017-11-04T08:52:25,42.805,6.029,4330,1995,198.990,60.852,13.286
2017-11-04T08:55:25,42.805,6.029,4330,1995,198.907,60.826,13.286
2017-11-04T08:58:25,42.805,6.029,4330,1995,198.942,60.836,13.286
2017-11-04T09:01:25,42.805,6.029,4330,1995,198.921,60.830,13.286
2017-11-04T09:04:25,42.805,6.029,4330,1995,198.928,60.832,13.286
2017-11-04T09:07:25,42.805,6.029,4330,1995,198.953,60.840,13.286
2017-11-04T09:10:25,42.805,6.029,4330,1995,198.955,60.840,13.286
2017-11-04T09:13:25,42.805,6.029,4330,1995,198.946,60.838,13.286
2017-11-04T09:16:25,42.805,6.029,4330,1995,198.990,60.851,13.286
2017-11-04T09:19:25,42.805,6.029,4330,1995,198.911,60.827,13.286
2017-11-04T09:22:25,42.805,6.029,4330,1995,198.913,60.828,13.286
2017-11-04T09:25:25,42.805,6.029,4330,1995,199.008,60.857,13.286
2017-11-04T09:28:25,42.805,6.029,4330,1995,198.917,60.829,13.286
2017-11-04T09:31:25,42.805,6.029,4330,1995,198.895,60.822,13.286
2017-11-04T09:34:25,42.805,6.029,4330,1995,198.943,60.837,13.286
2017-11-04T09:37:25,42.805,6.029,4330,1995,198.921,60.830,13.286
2017-11-04T09:40:25,42.805,6.029,4330,1995,198.932,60.833,13.286
2017-11-04T09:43:25,42.805,6.029,4330,1995,198.884,60.819,13.286
2017-11-04T09:46:25,42.805,6.029,4330,1995,198.906,60.826,13.286
2017-11-04T09:49:25,42.805,6.029,4330,1995,198.868,60.814,13.286
2017-11-04T09:52:25,42.805,6.029,4330,1995,198.849,60.808,13.286
2017-11-04T09:55:25,42.805,6.029,4330,1995,198.926,60.832,13.286
2017-11-04T09:58:25,42.805,6.029,4330,1995,198.844,60.807,13.286
2017-11-04T10:01:25,42.805,6.029,4330,1995,198.926,60.832,13.286
2017-11-04T10:04:25,42.805,6.029,4330,1995,198.892,60.822,13.286
2017-11-04T10:07:25,42.805,6.029,4330,1995,198.866,60.813,13.286
2017-11-04T10:10:25,42.805,6.029,4330,1995,198.868,60.814,13.286
2017-11-04T10:13:25,42.805,6.029,4330,1995,198.834,60.804,13.286
2017-11-04T10:16:25,42.805,6.029,4330,1995,198.889,60.820,13.286
2017-11-04T10:19:25,42.805,6.029,4330,1995,198.876,60.817,13.286
2017-11-04T10:22:25,42.805,6.029,4330,1995,198.823,60.801,13.286
2017-11-04T10:25:25,42.805,6.029,4330,1995,198.918,60.829,13.286
2017-11-04T10:28:25,42.805,6.029,4330,1995,198.919,60.829,13.286
2017-11-04T10:31:25,42.805,6.029,4330,1995,198.825,60.801,13.286
2017-11-04T10:34:25,42.805,6.029,4330,1995,198.867,60.813,13.286
2017-11-04T10:37:25,42.805,6.029,4330,1995,198.835,60.804,13.286
2017-11-04T10:40:25,42.805,6.029,4330,1995,198.866,60.814,13.286
2017-11-04T10:43:25,42.805,6.029,4330,1995,198.879,60.817,13.286
2017-11-04T10:46:25,42.805,6.029,4330,1995,198.873,60.816,13.286
2017-11-04T10:49:25,42.805,6.029,4330,1995,198.854,60.810,13.286
2017-11-04T10:52:25,42.805,6.029,4330,1995,198.797,60.792,13.286
2017-11-04T10:55:25,42.805,6.029,4330,1995,198.799,60.793,13.286
2017-11-04T10:58:25,42.805,6.029,4330,1995,198.862,60.812,13.286
2017-11-04T11:01:25,42.805,6.029,4330,1995,198.832,60.803,13.286
2017-11-04T11:04:25,42.805,6.029,4330,1995,198.840,60.806,13.286
2017-11-04T11:07:25,42.805,6.029,4330,1995,198.786,60.789,13.286
2017-11-04T11:10:25,42.805,6.029,4330,1995,198.801,60.794,13.286
2017-11-04T11:13:25,42.805,6.029,4330,1995,198.774,60.785,13.286
2017-11-04T11:16:25,42.805,6.029,4330,1995,198.787,60.789,13.286
2017-11-04T11:19:25,42.805,6.029,4330,1995,198.823,60.800,13.286
2017-11-04T11:22:25,42.805,6.029,4330,1995,198.784,60.788,13.286
2017-11-04T11:25:25,42.805,6.029,4330,1995,198.857,60.811,13.286
2017-11-04T11:28:25,42.805,6.029,4330,1995,198.784,60.788,13.286
2017-11-04T11:31:25,42.805,6.029,4330,1995,198.779,60.787,13.287
2017-11-04T11:34:25,42.805,6.029,4330,1995,198.761,60.781,13.286
2017-11-04T11:37:25,42.805,6.029,4330,1995,198.787,60.790,13.286
2017-11-04T11:40:25,42.805,6.029,4330,1995,198.776,60.786,13.286
2017-11-04T11:43:25,42.805,6.029,4330,1995,198.772,60.785,13.286
2017-11-04T11:46:25,42.805,6.029,4330,1995,198.766,60.783,13.286
2017-11-04T11:49:25,42.805,6.029,4330,1995,198.705,60.764,13.286
2017-11-04T11:52:25,42.805,6.029,4330,1995,198.692,60.760,13.286
2017-11-04T11:55:25,42.805,6.029,4330,1995,198.722,60.769,13.286
2017-11-04T11:58:25,42.805,6.029,4330,1995,198.667,60.753,13.286
2017-11-04T12:01:25,42.805,6.029,4330,1995,198.659,60.750,13.286
2017-11-04T12:04:25,42.805,6.029,4330,1995,198.717,60.768,13.286
2017-11-04T12:07:25,42.805,6.029,4330,1995,198.742,60.776,13.286
2017-11-04T12:10:25,42.805,6.029,4330,1995,198.762,60.782,13.286
2017-11-04T12:13:25,42.805,6.029,4330,1995,198.748,60.777,13.286
2017-11-04T12:16:25,42.805,6.029,4330,1995,198.764,60.782,13.286
2017-11-04T12:19:25,42.805,6.029,4330,1995,198.760,60.781,13.286
2017-11-04T12:22:25,42.805,6.029,4330,1995,198.813,60.797,13.286
2017-11-04T12:25:25,42.805,6.029,4330,1995,198.773,60.785,13.286
2017-11-04T12:28:25,42.805,6.029,4330,1995,198.717,60.768,13.286
2017-11-04T12:31:25,42.805,6.029,4330,1995,198.724,60.770,13.286
2017-11-04T12:34:25,42.805,6.029,4330,1995,198.683,60.757,13.286
2017-11-04T12:37:25,42.805,6.029,4330,1995,198.701,60.763,13.286
2017-11-04T12:40:25,42.805,6.029,4330,1995,198.679,60.756,13.286
2017-11-04T12:43:25,42.805,6.029,4330,1995,198.728,60.771,13.286
2017-11-04T12:46:25,42.805,6.029,4330,1995,198.707,60.765,13.286
2017-11-04T12:49:25,42.805,6.029,4330,1995,198.663,60.751,13.286
2017-11-04T12:52:25,42.805,6.029,4330,1995,198.648,60.747,13.286
2017-11-04T12:55:25,42.805,6.029,4330,1995,198.710,60.766,13.286
2017-11-04T12:58:25,42.805,6.029,4330,1995,198.654,60.749,13.286
2017-11-04T13:01:25,42.805,6.029,4330,1995,198.636,60.743,13.286
2017-11-04T13:04:25,42.805,6.029,4330,1995,198.608,60.735,13.286
2017-11-04T13:07:25,42.805,6.029,4330,1995,198.645,60.745,13.286
2017-11-04T13:10:25,42.805,6.029,4330,1995,198.626,60.740,13.286
2017-11-04T13:13:25,42.805,6.029,4330,1995,198.644,60.746,13.286
2017-11-04T13:16:25,42.805,6.029,4330,1995,198.597,60.731,13.286
2017-11-04T13:19:25,42.805,6.029,4330,1995,198.636,60.743,13.286
2017-11-04T13:22:25,42.805,6.029,4330,1995,198.672,60.754,13.286
2017-11-04T13:25:25,42.805,6.029,4330,1995,198.596,60.731,13.286
2017-11-04T13:28:25,42.805,6.029,4330,1995,198.641,60.745,13.286
2017-11-04T13:31:25,42.805,6.029,4330,1995,198.610,60.735,13.286
2017-11-04T13:34:25,42.805,6.029,4330,1995,198.666,60.752,13.286
2017-11-04T13:37:25,42.805,6.029,4330,1995,198.667,60.753,13.286
2017-11-04T13:40:25,42.805,6.029,4330,1995,198.546,60.716,13.286
2017-11-04T13:43:25,42.805,6.029,4330,1995,198.569,60.722,13.286
2017-11-04T13:46:25,42.805,6.029,4330,1995,198.597,60.731,13.286
2017-11-04T13:49:25,42.805,6.029,4330,1995,198.567,60.722,13.286
2017-11-04T13:52:25,42.805,6.029,4330,1995,198.533,60.711,13.286
2017-11-04T13:55:25,42.805,6.029,4330,1995,198.590,60.729,13.286
2017-11-04T13:58:25,42.805,6.029,4330,1995,198.537,60.713,13.286
2017-11-04T14:01:25,42.805,6.029,4330,1995,198.582,60.727,13.287
2017-11-04T14:04:25,42.805,6.029,4330,1995,198.641,60.744,13.286
2017-11-04T14:07:25,42.805,6.029,4330,1995,198.616,60.737,13.286
2017-11-04T14:10:25,42.805,6.029,4330,1995,198.598,60.732,13.286
2017-11-04T14:13:25,42.805,6.029,4330,1995,198.587,60.728,13.286
2017-11-04T14:16:25,42.805,6.029,4330,1995,198.602,60.733,13.286
2017-11-04T14:19:25,42.805,6.029,4330,1995,198.586,60.728,13.286
2017-11-04T14:22:25,42.805,6.029,4330,1995,198.529,60.710,13.286
2017-11-04T14:25:25,42.805,6.029,4330,1995,198.491,60.699,13.286
2017-11-04T14:28:25,42.805,6.029,4330,1995,198.525,60.709,13.286
2017-11-04T14:31:25,42.805,6.029,4330,1995,198.436,60.682,13.286
2017-11-04T14:34:25,42.805,6.029,4330,1995,198.378,60.664,13.286
2017-11-04T14:37:25,42.805,6.029,4330,1995,198.437,60.682,13.286
2017-11-04T14:40:25,42.805,6.029,4330,1995,198.414,60.676,13.286
2017-11-04T14:43:25,42.805,6.029,4330,1995,198.364,60.660,13.286
2017-11-04T14:46:25,42.805,6.029,4330,1995,198.312,60.644,13.286
2017-11-04T14:49:25,42.805,6.029,4330,1995,198.408,60.673,13.286
2017-11-04T14:52:25,42.805,6.029,4330,1995,198.418,60.676,13.286
2017-11-04T14:55:25,42.805,6.029,4330,1995,198.356,60.658,13.286
2017-11-04T14:58:25,42.805,6.029,4330,1995,198.292,60.638,13.286
2017-11-04T15:01:25,42.805,6.029,4330,1995,198.383,60.667,13.287
2017-11-04T15:04:25,42.805,6.029,4330,1995,198.376,60.664,13.286
2017-11-04T15:07:25,42.805,6.029,4330,1995,198.390,60.668,13.286
2017-11-04T15:10:25,42.805,6.029,4330,1995,198.389,60.668,13.287
2017-11-04T15:13:25,42.805,6.029,4330,1995,198.327,60.648,13.286
2017-11-04T15:16:25,42.805,6.029,4330,1995,198.272,60.632,13.286
2017-11-04T15:19:25,42.805,6.029,4330,1995,198.397,60.670,13.286
2017-11-04T15:22:25,42.805,6.029,4330,1995,198.385,60.666,13.286
2017-11-04T15:25:25,42.805,6.029,4330,1995,198.420,60.677,13.286
2017-11-04T15:28:25,42.805,6.029,4330,1995,198.369,60.661,13.286
2017-11-04T15:31:25,42.805,6.029,4330,1995,198.408,60.673,13.286
2017-11-04T15:34:25,42.805,6.029,4330,1995,198.471,60.693,13.286
2017-11-04T15:37:25,42.805,6.029,4330,1995,198.461,60.690,13.286
2017-11-04T15:40:25,42.805,6.029,4330,1995,198.397,60.670,13.286
2017-11-04T15:43:25,42.805,6.029,4330,1995,198.418,60.677,13.286
2017-11-04T15:46:25,42.805,6.029,4330,1995,198.381,60.666,13.287
2017-11-04T15:49:25,42.805,6.029,4330,1995,198.374,60.663,13.286
2017-11-04T15:52:25,42.805,6.029,4330,1995,198.421,60.677,13.286
2017-11-04T15:55:25,42.805,6.029,4330,1995,198.501,60.702,13.286
2017-11-04T15:58:25,42.805,6.029,4330,1995,198.557,60.719,13.286
2017-11-04T16:01:25,42.805,6.029,4330,1995,198.506,60.703,13.286
2017-11-04T16:04:25,42.805,6.029,4330,1995,198.446,60.685,13.286
2017-11-04T16:07:25,42.805,6.029,4330,1995,198.416,60.675,13.286
2017-11-04T16:10:25,42.805,6.029,4330,1995,198.508,60.704,13.286
2017-11-04T16:13:25,42.805,6.029,4330,1995,198.547,60.716,13.286
2017-11-04T16:16:25,42.805,6.029,4330,1995,198.566,60.721,13.286
2017-11-04T16:19:25,42.805,6.029,4330,1995,198.494,60.700,13.286
2017-11-04T16:22:25,42.805,6.029,4330,1995,198.468,60.692,13.286
2017-11-04T16:25:25,42.805,6.029,4330,1995,198.432,60.681,13.286
2017-11-04T16:28:25,42.805,6.029,4330,1995,198.494,60.700,13.286
2017-11-04T16:31:25,42.805,6.029,4330,1995,198.624,60.739,13.286
2017-11-04T16:34:25,42.805,6.029,4330,1995,198.598,60.731,13.286
2017-11-04T16:37:25,42.805,6.029,4330,1995,198.644,60.746,13.286
2017-11-04T16:40:25,42.805,6.029,4330,1995,198.679,60.756,13.286
2017-11-04T16:43:25,42.805,6.029,4330,1995,198.598,60.732,13.286
2017-11-04T16:46:25,42.805,6.029,4330,1995,198.643,60.746,13.287
2017-11-04T16:49:25,42.805,6.029,4330,1995,198.695,60.761,13.286
2017-11-04T16:52:25,42.805,6.029,4330,1995,198.659,60.750,13.286
2017-11-04T16:55:25,42.805,6.029,4330,1995,198.609,60.735,13.286
2017-11-04T16:58:25,42.805,6.029,4330,1995,198.616,60.738,13.287
2017-11-04T17:01:25,42.805,6.029,4330,1995,198.628,60.741,13.286
2017-11-04T17:04:25,42.805,6.029,4330,1995,198.643,60.746,13.286
2017-11-04T17:07:25,42.805,6.029,4330,1995,198.622,60.739,13.286
2017-11-04T17:10:25,42.805,6.029,4330,1995,198.639,60.744,13.286
2017-11-04T17:13:25,42.805,6.029,4330,1995,198.723,60.770,13.286
2017-11-04T17:16:25,42.805,6.029,4330,1995,198.690,60.760,13.286
2017-11-04T17:19:25,42.805,6.029,4330,1995,198.662,60.751,13.286
2017-11-04T17:22:25,42.805,6.029,4330,1995,198.689,60.759,13.286
2017-11-04T17:25:25,42.805,6.029,4330,1995,198.722,60.770,13.286
2017-11-04T17:28:25,42.805,6.029,4330,1995,198.770,60.784,13.286
2017-11-04T17:31:25,42.805,6.029,4330,1995,198.741,60.776,13.286
2017-11-04T17:34:25,42.805,6.029,4330,1995,198.805,60.795,13.286
2017-11-04T17:37:25,42.805,6.029,4330,1995,198.678,60.757,13.287
2017-11-04T17:40:25,42.805,6.029,4330,1995,198.710,60.766,13.286
2017-11-04T17:43:25,42.805,6.029,4330,1995,198.697,60.762,13.286
2017-11-04T17:46:25,42.805,6.029,4330,1995,198.764,60.782,13.286
2017-11-04T17:49:25,42.805,6.029,4330,1995,198.704,60.764,13.286
2017-11-04T17:52:25,42.805,6.029,4330,1995,198.767,60.783,13.286
2017-11-04T17:55:25,42.805,6.029,4330,1995,198.679,60.757,13.286
2017-11-04T17:58:25,42.805,6.029,4330,1995,198.751,60.778,13.286
2017-11-04T18:01:25,42.805,6.029,4330,1995,198.731,60.773,13.287
2017-11-04T18:04:25,42.805,6.029,4330,1995,198.729,60.772,13.286
2017-11-04T18:07:25,42.805,6.029,4330,1995,198.752,60.779,13.286